Weather History for Madisonville, KY

Change the Weather History Date:

Wednesday, October 26, 2011

  Actual Average (KOWB) Record (KOWB)
Temperature  
Mean Temperature 62 °F -  
Max Temperature 71 °F 67 °F 86 °F (1940)
Min Temperature 53 °F 40 °F 24 °F (1942)
Degree Days  
Heating Degree Days 3    
Growing Degree Days 12 (Base 50)    
Moisture  
Dew Point 54 °F    
Average Humidity 73    
Maximum Humidity 100    
Minimum Humidity 52    
Precipitation  
Precipitation 0.35 in - - ()
Sea Level Pressure  
Sea Level Pressure 29.90 in    
Wind  
Wind Speed 9 mph ()    
Max Wind Speed 17 mph    
Max Gust Speed 23 mph    
Visibility 8.1 miles    
Events Rain    
Averages and records for this station are not official NWS values.
T = Trace of Precipitation, MM = Missing Value Source: Averaged Metar Reports

Daily Weather History Graph

Daily Weather History Graph

Search for Another Location

Airport:

Trip Planner

Search our weather history database for the weather conditions in past years. The results will help you decide how hot, cold, wet, or windy it might be!

Date:

Astronomy

Oct. 26, 2011 Rise Set
Actual Time 7:07 AM CDT 5:58 PM CDT
Civil Twilight 6:41 AM CDT 6:25 PM CDT
Nautical Twilight 6:10 AM CDT 6:55 PM CDT
Astronomical Twilight 5:40 AM CDT 7:26 PM CDT
Moon 6:54 AM CDT (10/26) 5:42 PM CDT (10/26)
Length of Visible Light 11h 44m
Length of Day
10h 50m
Waning Crescent, 0% of the Moon is Illuminated
Oct 26
Waning Crescent
Oct 26
New
Nov 2
First Quarter
Nov 10
Full
Nov 18
Last Quarter

Hourly Weather History & Observations

Time (CDT) Temp. Dew Point Humidity Pressure Visibility Wind Dir Wind Speed Gust Speed Precip Events Conditions
12:15 AM 62.6 °F 44.6 °F 52% 29.96 in 10.0 mi South 9.2 mph - N/A   Clear
12:35 AM 62.6 °F 46.4 °F 55% 29.97 in 10.0 mi South 9.2 mph - N/A   Clear
12:55 AM 62.6 °F 46.4 °F 55% 29.97 in 10.0 mi SSW 8.1 mph - N/A   Clear
1:15 AM 62.6 °F 46.4 °F 55% 29.97 in 10.0 mi SSW 6.9 mph - N/A   Clear
1:35 AM 62.6 °F 48.2 °F 59% 29.97 in 10.0 mi South 8.1 mph - N/A   Clear
1:55 AM 62.6 °F 48.2 °F 59% 29.97 in 10.0 mi SSW 8.1 mph - N/A   Clear
2:15 AM 62.6 °F 48.2 °F 59% 29.96 in 10.0 mi SSW 8.1 mph - N/A   Clear
2:35 AM 62.6 °F 50.0 °F 63% 29.96 in 10.0 mi SSW 8.1 mph - N/A   Clear
2:55 AM 62.6 °F 50.0 °F 63% 29.96 in 10.0 mi SSW 8.1 mph - N/A   Clear
3:15 AM 62.6 °F 50.0 °F 63% 29.95 in 10.0 mi SSW 8.1 mph - N/A   Clear
3:35 AM 62.6 °F 50.0 °F 63% 29.95 in 10.0 mi SSW 9.2 mph - N/A   Clear
3:55 AM 62.6 °F 50.0 °F 63% 29.94 in 10.0 mi SSW 10.4 mph 16.1 mph N/A   Clear
4:15 AM 62.6 °F 50.0 °F 63% 29.94 in 10.0 mi SSW 11.5 mph - N/A   Clear
4:35 AM 62.6 °F 50.0 °F 63% 29.94 in 10.0 mi SSW 9.2 mph - N/A Rain Light Rain
5:15 AM 62.6 °F 48.2 °F 59% 29.94 in 10.0 mi SSW 10.4 mph - N/A   Overcast
5:35 AM 62.6 °F 48.2 °F 59% 29.93 in 10.0 mi SSW 9.2 mph - N/A   Mostly Cloudy
5:55 AM 62.6 °F 48.2 °F 59% 29.93 in 10.0 mi SSW 10.4 mph - N/A   Scattered Clouds
6:15 AM 62.6 °F 48.2 °F 59% 29.93 in 10.0 mi SSW 9.2 mph - N/A   Scattered Clouds
6:35 AM 62.6 °F 48.2 °F 59% 29.93 in 10.0 mi SSW 10.4 mph - N/A   Clear
6:55 AM 62.6 °F 46.4 °F 55% 29.92 in 10.0 mi SW 11.5 mph - N/A   Clear
7:15 AM 64.4 °F 46.4 °F 52% 29.93 in 10.0 mi SW 13.8 mph - N/A   Scattered Clouds
7:35 AM 64.4 °F 46.4 °F 52% 29.93 in 10.0 mi SW 15.0 mph 21.9 mph N/A   Overcast
8:15 AM 64.4 °F 48.2 °F 56% 29.94 in 10.0 mi SW 15.0 mph 18.4 mph N/A   Overcast
8:35 AM 64.4 °F 50.0 °F 59% 29.94 in 10.0 mi SW 15.0 mph - N/A   Mostly Cloudy
8:55 AM 64.4 °F 50.0 °F 59% 29.93 in 10.0 mi SW 11.5 mph - N/A   Mostly Cloudy
9:15 AM 64.4 °F 51.8 °F 64% 29.94 in 10.0 mi SW 13.8 mph 17.3 mph N/A   Light Drizzle
9:35 AM 66.2 °F 51.8 °F 60% 29.94 in 10.0 mi SW 13.8 mph 19.6 mph N/A   Scattered Clouds
10:15 AM 68.0 °F 53.6 °F 60% 29.93 in 10.0 mi SW 13.8 mph - N/A   Overcast
10:35 AM 69.8 °F 53.6 °F 56% 29.93 in 10.0 mi WSW 17.3 mph 21.9 mph N/A   Overcast
10:55 AM 69.8 °F 53.6 °F 56% 29.93 in 10.0 mi WSW 16.1 mph - N/A   Overcast
11:15 AM 68.0 °F 53.6 °F 60% 29.93 in 10.0 mi SW 13.8 mph 23.0 mph N/A   Overcast
11:35 AM 69.8 °F 55.4 °F 60% 29.93 in 10.0 mi WSW 12.7 mph - N/A   Overcast
11:55 AM 68.0 °F 55.4 °F 64% 29.93 in 10.0 mi WSW 12.7 mph 20.7 mph N/A   Overcast
12:15 PM 68.0 °F 55.4 °F 64% 29.91 in 10.0 mi SSW 13.8 mph 21.9 mph N/A Rain Light Rain
12:35 PM 69.8 °F 55.4 °F 60% 29.91 in 10.0 mi SW 15.0 mph - N/A Rain Light Rain
12:55 PM 71.6 °F 55.4 °F 57% 29.90 in 10.0 mi SW 17.3 mph - N/A   Mostly Cloudy
1:35 PM 69.8 °F 55.4 °F 60% 29.88 in 10.0 mi SW 13.8 mph 18.4 mph N/A   Scattered Clouds
1:55 PM 69.8 °F 55.4 °F 60% 29.87 in 10.0 mi SW 11.5 mph 18.4 mph N/A   Mostly Cloudy
2:15 PM 68.0 °F 60.8 °F 78% 29.86 in 5.0 mi WSW 10.4 mph - 0.01 in Rain Rain
2:35 PM 69.8 °F 62.6 °F 78% 29.86 in 10.0 mi SW 6.9 mph - 0.01 in   Mostly Cloudy
2:55 PM 69.8 °F 60.8 °F 73% 29.86 in 10.0 mi SW 13.8 mph 18.4 mph 0.01 in   Mostly Cloudy
3:15 PM 69.8 °F 59.0 °F 68% 29.86 in 10.0 mi WSW 8.1 mph - N/A   Overcast
3:35 PM 69.8 °F 59.0 °F 68% 29.86 in 7.0 mi WSW 6.9 mph - N/A   Overcast
3:55 PM 68.0 °F 60.8 °F 78% 29.87 in 7.0 mi WSW 5.8 mph - 0.02 in Rain Rain
4:35 PM 62.6 °F 62.6 °F 100% 29.86 in 5.0 mi SSW 5.8 mph - 0.09 in Rain Rain
4:55 PM 62.6 °F 62.6 °F 100% 29.86 in 7.0 mi WSW 3.5 mph - 0.09 in Rain Light Rain
5:15 PM 62.6 °F 62.6 °F 100% 29.85 in 5.0 mi Calm Calm - 0.01 in Rain Light Rain
5:35 PM 62.6 °F 62.6 °F 100% 29.85 in 4.0 mi Calm Calm - 0.01 in Rain Light Rain
5:55 PM 62.6 °F 62.6 °F 100% 29.85 in 4.0 mi Calm Calm - 0.01 in   Overcast
6:15 PM 62.6 °F 60.8 °F 94% 29.85 in 2.5 mi NNW 3.5 mph - N/A   Overcast
6:35 PM 62.6 °F 60.8 °F 94% 29.86 in 2.0 mi Calm Calm - N/A   Overcast
6:55 PM 60.8 °F 60.8 °F 100% 29.87 in 2.0 mi NW 4.6 mph - 0.01 in Rain Heavy Rain
7:15 PM 62.6 °F 60.8 °F 94% 29.86 in 4.0 mi WNW 4.6 mph - 0.08 in Rain Rain
7:35 PM 62.6 °F 60.8 °F 94% 29.86 in 5.0 mi West 4.6 mph - 0.16 in Rain Heavy Rain
7:55 PM 62.6 °F 60.8 °F 94% 29.85 in 4.0 mi North 5.8 mph - 0.21 in Rain Light Rain
8:15 PM 62.6 °F 60.8 °F 94% 29.85 in 4.0 mi North 3.5 mph - N/A   Overcast
8:35 PM 62.6 °F 60.8 °F 94% 29.85 in 3.0 mi Calm Calm - N/A   Overcast
8:55 PM 60.8 °F 60.8 °F 100% 29.86 in 3.0 mi Calm Calm - N/A   Overcast
9:15 PM 62.6 °F 60.8 °F 94% 29.86 in 5.0 mi NNW 8.1 mph - N/A   Drizzle
9:35 PM 60.8 °F 59.0 °F 94% 29.87 in 7.0 mi NNW 9.2 mph - N/A   Drizzle
9:55 PM 57.2 °F 55.4 °F 94% 29.87 in 5.0 mi NNW 11.5 mph - N/A   Drizzle
10:15 PM 55.4 °F 55.4 °F 100% 29.87 in 7.0 mi North 9.2 mph - N/A   Overcast
10:35 PM 55.4 °F 53.6 °F 94% 29.87 in 5.0 mi North 5.8 mph - N/A   Overcast
10:55 PM 55.4 °F 53.6 °F 94% 29.87 in 7.0 mi North 9.2 mph - N/A Rain Rain
11:15 PM 53.6 °F 53.6 °F 100% 29.87 in 7.0 mi NNW 9.2 mph - N/A   Light Drizzle
11:35 PM 53.6 °F 53.6 °F 100% 29.86 in 7.0 mi NNW 4.6 mph - N/A Rain Rain
11:55 PM 53.6 °F 53.6 °F 100% 29.86 in 7.0 mi North 4.6 mph - N/A   Overcast